Location: Unspecified
(0.0000°N, 0.0000°E)
Time: 23:07:37
(UTC+00:00)

GONETS D1M 1 - Pass Details

Date: 18 May 2026
Orbit: 1435 x 1447 km, 82.5° (Epoch: 7 June)

Event Time Altitude Azimuth Distance (km) Brightness Sun altitude
Rises 19:32:42 0° 315° (NW) 4,519 10.4 -22.6°
Reaches altitude 10° 19:38:07 10° 286° (WNW) 3,542 9.8 -23.8°
Maximum altitude 19:40:53 12° 267° (W) 3,394 9.4 -24.5°
Drops below altitude 10° 19:43:41 10° 247° (WSW) 3,543 9.3 -25.1°
Sets 19:49:11 0° 218° (SW) 4,523 9.5 -26.4°
